Location: Bois Neuf
(42.7667°N, 0.6333°E)
Time: 21:45:54
(UTC+00:00)

Cosmos 1937 Rocket - Pass Details

Date: 25 September 2020
Orbit: 747 x 779 km, 74.0° (Epoch: 26 October)

Event Time Altitude Azimuth Distance (km) Brightness Sun altitude
Rises 03:09:50 0° 344° (NNW) 3,205 6.9 -28.8°
Reaches altitude 10° 03:12:17 10° 350° (N) 2,275 6.1 -28.4°
Maximum altitude 03:17:17 50° 66° (ENE) 947 4.2 -27.6°
Drops below altitude 10° 03:22:15 10° 142° (SE) 2,260 6.0 -26.8°
Sets 03:24:40 0° 147° (SSE) 3,182 6.8 -26.4°
